Sugarloaf Regional (B21)
Carrabassett, ME
Field Elevation: 885
Lat: 45°05.12N  Long: 70°12.98W
CTAF/Unicom Freq: 122.8000
   
    
Weather Advisories
11/22/2014 13:53 Z
Altimeter 30.17" Hg
Wind 180° @ 3 KT
Gusts --
Visibility 10 SM
Temperature -4° C (25° F)
Dewpoint -12° C (10° F)
Relative Humidity 56%
Density Altitude --
Condensation Altitude 4,800 feet
Wind Chill -6° C (21° F)
  Wind and Runways
Indicated Runway = 17
History
 
 
More Info
All DigiWx sites map
 
NOAA Forecast
 
Airport IQ 5010
(39N) Princeton, NJ
(PN44) Upper Gwynedd Heliport
 
about DigiWx
 
FAA Disclaimer: The data displayed is for advisory purposes only and is not to be used for flight planning or operations. For official data, please call (not available) to hear the current automated AWOS voice message.
  METAR B21 221353Z AUTO 18003KT 10SM M04/M12 A3017